User: anonymous   Login
Location: Unspecified
(40.8819°N, 0.0000°E)
Time: 22:15:45
(UTC+00:00)
Language:

BUGSAT 1 - Orbit

View from above orbital plane
View from above orbital plane
View from above satellite
View from above satellite

Ground track
Ground track

The orbit data is extracted from the following two-line orbital elements,

1 40014U 14033E   24115.50133281  .00009936  00000-0  72987-3 0  9999
2 40014  98.1318 154.4057 0034351 315.4944  44.3521 15.03192196537587
Epoch (UTC): 24 April 2024 12:01:55
Eccentricity: 0.0034351
inclination: 98.1318°
perigee height: 533 km
apogee height: 581 km
right ascension of ascending node: 154.4057°
argument of perigee: 315.4944°
revolutions per day: 15.03192196
mean anomaly at epoch: 44.3521°
orbit number at epoch: 53758

The dashed part of the orbit path shows where the satellite is in the earth's shadow,  

DLR